Weather History for Tullahoma, TN

Change the Weather History Date:

Friday, December 7, 2012

  Actual Average Record
Temperature  
Mean Temperature 56 °F -  
Max Temperature 62 °F 52 °F 62 °F (2012)
Min Temperature 51 °F 31 °F 28 °F (2013)
Degree Days  
Heating Degree Days 8    
Growing Degree Days 6 (Base 50)    
Moisture  
Dew Point 50 °F    
Average Humidity 77    
Maximum Humidity 88    
Minimum Humidity 68    
Precipitation  
Precipitation 0.00 in - - ()
Sea Level Pressure  
Sea Level Pressure 30.00 in    
Wind  
Wind Speed 7 mph (South)    
Max Wind Speed 14 mph    
Max Gust Speed -    
Visibility 10 miles    
Events      
Averages and records for this station are not official NWS values.
T = Trace of Precipitation, MM = Missing Value Source: NWS Daily Summary

Daily Weather History Graph

Daily Weather History Graph

Search for Another Location

Airport:

Trip Planner

Search our weather history database for the weather conditions in past years. The results will help you decide how hot, cold, wet, or windy it might be!

Date:

Astronomy

Dec. 07, 2012 Rise Set
Actual Time 6:41 AM CST 4:32 PM CST
Civil Twilight 6:12 AM CST 5:00 PM CST
Nautical Twilight 5:41 AM CST 5:32 PM CST
Astronomical Twilight 5:10 AM CST 6:02 PM CST
Moon 12:11 AM CST (12/7) 12:18 PM CST (12/7)
Length of Visible Light 10h 47m
Length of Day
9h 51m
Last Quarter, 38% of the Moon is Illuminated
Dec 7
Last Quarter
Dec 13
New
Dec 19
First Quarter
Dec 28
Full
Jan 4
Last Quarter

Hourly Weather History & Observations

Time (CST) Temp. Dew Point Humidity Pressure Visibility Wind Dir Wind Speed Gust Speed Precip Events Conditions
12:15 AM 53.6 °F 44.6 °F 72% 30.04 in 10.0 mi SE 6.9 mph - N/A   Clear
12:35 AM 53.6 °F 44.6 °F 72% 30.04 in 10.0 mi SE 6.9 mph - N/A   Clear
12:55 AM 53.6 °F 44.6 °F 72% 30.04 in 10.0 mi SE 8.1 mph - N/A   Scattered Clouds
1:15 AM 53.6 °F 44.6 °F 72% 30.05 in 10.0 mi SE 8.1 mph - N/A   Mostly Cloudy
1:35 AM 53.6 °F 44.6 °F 72% 30.05 in 10.0 mi SE 9.2 mph - N/A   Mostly Cloudy
1:55 AM 51.8 °F 44.6 °F 76% 30.05 in 10.0 mi SSE 6.9 mph - N/A   Mostly Cloudy
2:15 AM 51.8 °F 44.6 °F 76% 30.04 in 10.0 mi SSE 8.1 mph - N/A   Mostly Cloudy
2:35 AM 51.8 °F 44.6 °F 76% 30.04 in 10.0 mi SE 6.9 mph - N/A   Scattered Clouds
2:55 AM 51.8 °F 44.6 °F 76% 30.04 in 10.0 mi SE 5.8 mph - N/A   Scattered Clouds
3:15 AM 51.8 °F 46.4 °F 82% 30.04 in 10.0 mi SE 6.9 mph - N/A   Mostly Cloudy
3:35 AM 51.8 °F 46.4 °F 82% 30.03 in 10.0 mi SE 6.9 mph - N/A   Mostly Cloudy
3:55 AM 51.8 °F 46.4 °F 82% 30.03 in 10.0 mi SSE 6.9 mph - N/A   Mostly Cloudy
4:15 AM 51.8 °F 46.4 °F 82% 30.03 in 10.0 mi SSE 6.9 mph - N/A   Mostly Cloudy
4:35 AM 51.8 °F 46.4 °F 82% 30.03 in 10.0 mi SE 5.8 mph - N/A   Scattered Clouds
4:55 AM 51.8 °F 46.4 °F 82% 30.03 in 10.0 mi SE 5.8 mph - N/A   Partly Cloudy
5:15 AM 51.8 °F 46.4 °F 82% 30.03 in 10.0 mi SSE 5.8 mph - N/A   Partly Cloudy
5:35 AM 51.8 °F 46.4 °F 82% 30.03 in 10.0 mi SSE 6.9 mph - N/A   Scattered Clouds
5:55 AM 51.8 °F 46.4 °F 82% 30.04 in 10.0 mi SSE 8.1 mph - N/A   Scattered Clouds
6:15 AM 51.8 °F 46.4 °F 82% 30.04 in 10.0 mi SSE 5.8 mph - N/A   Scattered Clouds
6:35 AM 51.8 °F 46.4 °F 82% 30.04 in 10.0 mi SSE 5.8 mph - N/A   Partly Cloudy
6:55 AM 51.8 °F 46.4 °F 82% 30.04 in 10.0 mi SSE 6.9 mph - N/A   Mostly Cloudy
7:15 AM 51.8 °F 48.2 °F 88% 30.05 in 10.0 mi South 5.8 mph - N/A   Overcast
7:35 AM 51.8 °F 48.2 °F 88% 30.05 in 10.0 mi South 5.8 mph - N/A   Overcast
7:55 AM 51.8 °F 48.2 °F 88% 30.05 in 10.0 mi SSE 8.1 mph - N/A   Overcast
8:15 AM 53.6 °F 48.2 °F 82% 30.05 in 10.0 mi SSE 9.2 mph - N/A   Overcast
8:35 AM 53.6 °F 48.2 °F 82% 30.05 in 10.0 mi SSE 6.9 mph - N/A   Overcast
8:55 AM 53.6 °F 48.2 °F 82% 30.06 in 10.0 mi South 8.1 mph - N/A   Overcast
9:15 AM 55.4 °F 48.2 °F 77% 30.05 in 10.0 mi South 8.1 mph - N/A   Overcast
9:35 AM 55.4 °F 50.0 °F 82% 30.05 in 10.0 mi South 5.8 mph - N/A   Overcast
9:55 AM 57.2 °F 50.0 °F 77% 30.04 in 10.0 mi SSE 8.1 mph - N/A   Overcast
10:15 AM 57.2 °F 50.0 °F 77% 30.03 in 10.0 mi SSE 8.1 mph - N/A   Mostly Cloudy
10:35 AM 57.2 °F 50.0 °F 77% 30.03 in 10.0 mi SSE 5.8 mph - N/A   Mostly Cloudy
10:55 AM 59.0 °F 51.8 °F 77% 30.02 in 10.0 mi South 8.1 mph - N/A   Scattered Clouds
11:15 AM 60.8 °F 51.8 °F 72% 30.00 in 10.0 mi South 12.7 mph - N/A   Scattered Clouds
11:35 AM 60.8 °F 51.8 °F 72% 30.00 in 10.0 mi South 8.1 mph - N/A   Mostly Cloudy
11:55 AM 59.0 °F 51.8 °F 77% 29.99 in 10.0 mi South 8.1 mph - N/A   Mostly Cloudy
12:15 PM 60.8 °F 51.8 °F 72% 29.98 in 10.0 mi South 9.2 mph - N/A   Mostly Cloudy
12:35 PM 60.8 °F 51.8 °F 72% 29.97 in 10.0 mi South 9.2 mph - N/A   Mostly Cloudy
12:55 PM 60.8 °F 51.8 °F 72% 29.96 in 10.0 mi South 9.2 mph - N/A   Mostly Cloudy
1:15 PM 62.6 °F 51.8 °F 68% 29.95 in 10.0 mi SSW 11.5 mph - N/A   Mostly Cloudy
1:35 PM 62.6 °F 53.6 °F 72% 29.94 in 10.0 mi South 9.2 mph - N/A   Scattered Clouds
1:55 PM 62.6 °F 51.8 °F 68% 29.94 in 10.0 mi SSW 10.4 mph - N/A   Partly Cloudy
2:15 PM 62.6 °F 53.6 °F 72% 29.94 in 10.0 mi SSW 11.5 mph - N/A   Partly Cloudy
2:35 PM 62.6 °F 53.6 °F 72% 29.94 in 10.0 mi SW 10.4 mph - N/A   Mostly Cloudy
2:55 PM 62.6 °F 53.6 °F 72% 29.93 in 10.0 mi SSW 13.8 mph - N/A   Mostly Cloudy
3:15 PM 62.6 °F 53.6 °F 72% 29.94 in 10.0 mi SSW 11.5 mph - N/A   Scattered Clouds
3:35 PM 62.6 °F 53.6 °F 72% 29.94 in 10.0 mi South 9.2 mph - N/A   Mostly Cloudy
3:55 PM 60.8 °F 51.8 °F 72% 29.94 in 10.0 mi SSW 9.2 mph - N/A   Overcast
4:15 PM 60.8 °F 51.8 °F 72% 29.95 in 10.0 mi SSW 8.1 mph - N/A   Overcast
4:35 PM 60.8 °F 51.8 °F 72% 29.95 in 10.0 mi SSW 9.2 mph - N/A   Overcast
4:55 PM 60.8 °F 51.8 °F 72% 29.96 in 10.0 mi SW 8.1 mph - N/A   Overcast
5:15 PM 60.8 °F 51.8 °F 72% 29.95 in 10.0 mi South 6.9 mph - N/A   Overcast
5:35 PM 60.8 °F 51.8 °F 72% 29.96 in 10.0 mi South 5.8 mph - N/A   Overcast
5:55 PM 60.8 °F 51.8 °F 72% 29.96 in 10.0 mi South 4.6 mph - N/A   Overcast
6:15 PM 60.8 °F 51.8 °F 72% 29.96 in 10.0 mi South 4.6 mph - N/A   Overcast
6:35 PM 59.0 °F 51.8 °F 77% 29.96 in 10.0 mi South 3.5 mph - N/A   Overcast
6:55 PM 59.0 °F 51.8 °F 77% 29.97 in 10.0 mi South 4.6 mph - N/A   Overcast
7:15 PM 59.0 °F 51.8 °F 77% 29.97 in 10.0 mi South 4.6 mph - N/A   Overcast
7:35 PM 59.0 °F 51.8 °F 77% 29.96 in 10.0 mi SSE 5.8 mph - N/A   Mostly Cloudy
7:55 PM 59.0 °F 51.8 °F 77% 29.97 in 10.0 mi SSE 5.8 mph - N/A   Overcast
8:15 PM 59.0 °F 51.8 °F 77% 29.97 in 10.0 mi South 5.8 mph - N/A   Overcast
8:35 PM 57.2 °F 51.8 °F 82% 29.98 in 10.0 mi South 3.5 mph - N/A   Overcast
8:55 PM 59.0 °F 51.8 °F 77% 29.98 in 10.0 mi Calm Calm - N/A   Overcast
9:15 PM 59.0 °F 51.8 °F 77% 29.98 in 10.0 mi Calm Calm - N/A   Overcast
9:35 PM 57.2 °F 51.8 °F 82% 29.97 in 10.0 mi Calm Calm - N/A   Mostly Cloudy
9:55 PM 57.2 °F 51.8 °F 82% 29.98 in 10.0 mi Calm Calm - N/A   Overcast
10:15 PM 57.2 °F 50.0 °F 77% 29.98 in 10.0 mi Calm Calm - N/A   Scattered Clouds
10:35 PM 57.2 °F 51.8 °F 82% 29.98 in 10.0 mi South 4.6 mph - N/A   Mostly Cloudy
10:55 PM 57.2 °F 51.8 °F 82% 29.98 in 10.0 mi South 4.6 mph - N/A   Mostly Cloudy
11:15 PM 55.4 °F 50.0 °F 82% 29.98 in 10.0 mi South 4.6 mph - N/A   Scattered Clouds
11:35 PM 55.4 °F 50.0 °F 82% 29.97 in 10.0 mi South 4.6 mph - N/A   Scattered Clouds
11:55 PM 55.4 °F 50.0 °F 82% 29.97 in 10.0 mi South 5.8 mph - N/A   Mostly Cloudy